Regional Weather Roundup
Issued by NWS

Home | Current Version | Previous Version | Graphics & Text | Print | Product List | Glossary On
Versions: 1 2 3 4 5 6 7 8 9 10 11 12 13 14 15 16 17 18 19 20 21 22 23 24 25 26 27 28 29 30 31 32 33 34 35 36 37 38 39 40 41 42 43 44 45 46 47 48 49 50
000
ASUS43 KOAX 280902
RWRNE

WEATHER ROUNDUP FOR NEBRASKA
NATIONAL WEATHER SERVICE OMAHA NE
400 AM CDT THU AUG 28 2014

NOTES: SATELLITE DATA IS BEING USED TO AUGMENT CLOUD COVER ABOVE
       12000 FEET.
       "FAIR" INDICATES FEW OR NO CLOUDS BELOW 12,000 FEET WITH NO
       SIGNIFICANT WEATHER AND/OR OBSTRUCTIONS TO VISIBILITY.

  * THESE STATIONS DO NOT REPORT WEATHER SUCH AS RAIN...SNOW OR FOG.

NEZ001>004-019>022-054>056-281000-
NEBRASKA PANHANDLE

CITY           SKY/WX    TMP DP  RH WIND       PRES   REMARKS
SCOTTSBLUFF    PTCLDY    60  59  96 NW3       30.04F
ALLIANCE       CLOUDY    62  61  96 NW5       30.03S
CHADRON        CLOUDY    64  62  93 NW5       30.01R
KIMBALL        CLOUDY    58  56  92 W12       30.08S
SIDNEY         CLOUDY    61  59  93 NW9       30.03F
$$

NEZ057>060-069>072-079>082-281000-
SOUTHWEST NEBRASKA

CITY           SKY/WX    TMP DP  RH WIND       PRES   REMARKS
NORTH PLATTE   CLOUDY    63  62  97 CALM      29.98F
IMPERIAL       CLOUDY    61  59  93 SW7       30.02S
LEXINGTON      LGT RAIN  67  66  96 CALM      29.97S
MCCOOK         LGT RAIN  63  62  97 NW6       29.98F
OGALLALA       CLOUDY    61  60  96 W6        29.96F
$$

NEZ005>010-023>029-035>040-094-281000-
NORTH CENTRAL NEBRASKA

CITY           SKY/WX    TMP DP  RH WIND       PRES   REMARKS
VALENTINE      CLOUDY    68  68 100 E7        29.96F FOG
AINSWORTH      CLOUDY    67  67  99 S5        29.96F
BROKEN BOW     LGT RAIN  68  66  93 SE6       29.95F
O`NEILL        RAIN      69  69  99 SE9       29.96F
ORD            LGT RAIN  70  69  97 SE6       29.95R
THEDFORD       CLOUDY    68  67  96 SW5       29.98S
$$

NEZ041-046>049-061>064-073>077-083>087-281000-
SOUTH CENTRAL NEBRASKA

CITY           SKY/WX    TMP DP  RH WIND       PRES   REMARKS
GRAND ISLAND   HVY RAIN  68  66  93 S5        29.97S FOG
AURORA         CLOUDY    67  67 100 SE5       29.96F
HASTINGS       CLOUDY    68  65  90 CALM      29.96R
HEBRON         CLOUDY    72  68  89 CALM      29.95R FOG
HOLDREGE       CLOUDY    68  65  93 CALM      29.98R
KEARNEY *      CLOUDY    68  66  94 SE10      29.96S
YORK           RAIN      68 N/A N/A CALM      29.99S
$$

NEZ011>018-030>034-042>045-281000-
NORTHEAST NEBRASKA

CITY           SKY/WX    TMP DP  RH WIND       PRES   REMARKS
NORFOLK        RAIN      69  68  96 SE7       29.98F FOG
ALBION         DRIZZLE   69  67  93 SE7       29.96F
BLAIR          RAIN      70  68  93 E10       29.99F
FREMONT        HVY RAIN  70  68  93 E5        29.99F
TEKAMAH        LGT RAIN  70  68  93 SE5       30.00R
WAYNE          LGT RAIN  69  68  96 SE6       30.00S
$$

NEZ050>053-065>068-078-088>093-281000-
SOUTHEAST NEBRASKA

CITY           SKY/WX    TMP DP  RH WIND       PRES   REMARKS
LINCOLN        TSTM      70  69  97 E9        29.97F FOG
OMAHA EPPLEY   TSTM      71  68  90 E7        29.99F
BEATRICE       RAIN      72  72  99 SE9       29.96R
FALLS CITY     CLOUDY    73  72  96 E7        29.95F
NEBRASKA CITY  LGT RAIN  70  70 100 SE6       29.97F
PLATTSMOUTH    TSTM      71  68  92 CALM      29.99S
$$

NEZ044-045-051>053-067-281000-
OMAHA AREA

CITY           SKY/WX    TMP DP  RH WIND       PRES   REMARKS
OMAHA EPPLEY   TSTM      71  68  90 E7        29.99F
BLAIR          RAIN      70  68  93 E10       29.99F
FREMONT        HVY RAIN  70  68  93 E5        29.99F
MILLARD        RAIN      71  69  94 SE3       29.98F
OFFUTT AFB     TSTM      72  72 100 E7        29.97F FOG
PLATTSMOUTH    TSTM      71  68  92 CALM      29.99S
WAHOO          HVY RAIN  70  67  91 E10       29.98F
$$



USA.gov is the U.S. government's official web portal to all federal, state and local government web resources and services.